Location: Asheville, NC
(35.6000°N, 82.5500°W)
Time: 04:57:55
(UTC-04:00)

AO-85 - Pass Details

Date: 17 February 2018
Orbit: 499 x 787 km, 64.8° (Epoch: 24 May)

Event Time Altitude Azimuth Distance (km) Brightness Sun altitude
Exits shadow 06:04:33 18° 315° (NW) 1,391 ? -14.9°
Drops below altitude 10° 06:07:22 10° 356° (N) 1,901 ? -14.3°
Sets 06:10:18 0° 15° (NNE) 2,868 ? -13.7°
